Regional Weather Roundup
Issued by NWS Austin/San Antonio, TX

Home | Current Version | Previous Version | Text Only | Print | Product List | Glossary On
Versions: 1 2 3 4 5 6 7 8 9 10 11 12 13 14 15 16 17 18 19 20 21 22 23 24 25 26 27 28 29 30 31 32 33 34 35 36 37 38 39 40 41 42 43 44 45 46 47 48 49 50
000
ASUS44 KEWX 241610
RWREWX
SOUTH TEXAS REGIONAL WEATHER ROUNDUP
NATIONAL WEATHER SERVICE AUSTIN/SAN ANTONIO TX
1100 AM CDT SAT AUG 24 2019

NOTE: "FAIR" INDICATED FEW OR NO CLOUDS BELOW 12,000 FEET WITH NO
SIGNIFICANT WEATHER AND/OR OBSTRUCTIONS TO VISIBILITY.

* - THESE STATIONS ARE NOT NWS OR FAA STATIONS...AND ARE NOT SUBJECT
    TO NWS AND FAA QUALITY CONTROL.

TXZ171-172-183>190-241700-
TEXAS HILL COUNTRY AND EDWARDS PLATEAU

CITY           SKY/WX    TMP DP  RH WIND       PRES   REMARKS
JUNCTION       MOSUNNY   80  74  81 NE6       30.00S
*LLANO         PTSUNNY   82  73  74 CALM      30.01R
BURNET         SUNNY     84  71  65 VRB5      29.99S
*HORSESHOE BAY PTSUNNY   82  72  69 CALM      29.98S
*KERRVILLE     CLOUDY    79  74  83 CALM      30.00S
*FREDERICKSBRG DRIZZLE   77  72  83 W3        30.01R
*ROCKSPRINGS   MOSUNNY   81  70  69 SE6       30.06S
*BOERNE        SUNNY     81  72  74 CALM      29.99F
*CASTROVILLE   MOSUNNY   89  70  53 E5        29.96S HX  94
HONDO          MOSUNNY   85  72  65 CALM      29.95S HX  91
*UVALDE        SUNNY     82  72  71 E6        29.96S
DEL RIO        SUNNY     87  72  60 VRB3      29.92S HX  93
LAUGHLIN AFB   SUNNY     87  72  60 S9        29.93S HX  94
SPOFFORD       SUNNY     85  73  65 SE6       29.88S HX  92
*EAGLE PASS    SUNNY     88  72  58 VRB5      29.93S HX  94
CARRIZO SPRGS  SUNNY     84  73  70 E6        29.91S HX  91
$$

TXZ173-191>194-202-209-217>225-228-241700-
CENTRAL AND SOUTH CENTRAL TEXAS

CITY           SKY/WX    TMP DP  RH WIND       PRES   REMARKS
GEORGETOWN     PTSUNNY   85  73  67 VRB3      29.97S HX  91
AUSTIN/BERGSTM PTSUNNY   88  75  65 VRB5      29.94F HX  97
AUSTIN/MABRY   MOSUNNY   86  73  65 S3        29.96S HX  93
*AUSTIN/EXEC   PTSUNNY   84  73  70 CALM      29.96S HX  91
*LAGO VISTA    MOSUNNY   82  74  76 SE3       29.98S
SAN MARCOS     MOSUNNY   88  75  65 SW3       29.96F HX  97
NEW BRAUNFELS  MOSUNNY   85  74  69 CALM      29.94S HX  92
RANDOLPH AFB   CLOUDY    85  75  72 CALM      29.95S HX  93
SEGUIN         CLOUDY    84  75  74 CALM      29.98F HX  92
KELLY FIELD    PTSUNNY   86  74  66 NE5       29.93S HX  94
SAN ANTONIO    CLOUDY    84  73  69 NE3       29.95S HX  90
STINSON FIELD  MOSUNNY   87  74  64 E7        29.92S HX  95
PLEASANTON     SUNNY     85  74  70 NE6       29.93S HX  93
*LA GRANGE     MOSUNNY   88  76  68 CALM      29.92R HX  98
*GIDDINGS      PTSUNNY   89  74  62 W5        29.95S HX  98
*GONZALES      PTSUNNY   88  76  68 CALM      29.92F HX  99
$$

TXZ163>164-176>182-195>201-210>213-226-227-235-241700-
SOUTHEAST TEXAS

CITY           SKY/WX    TMP DP  RH WIND       PRES   REMARKS
COLLEGE STN    MOSUNNY   88  74  63 SE6       29.94S HX  96
*BRYAN         MOSUNNY   89  75  65 NE3       29.96S HX  99
*CALDWELL      CLOUDY    85  73  67 CALM      29.95S HX  92
*CROCKETT      MOSUNNY   84  73  70 CALM      29.99S HX  91
*BRENHAM       PTSUNNY   87  74  63 CALM      29.94F HX  95
HUNTSVILLE     MOSUNNY   86  73  65 CALM      29.95F HX  93
CONROE         MOSUNNY   84  75  74 N6        29.95F HX  92
HOUSTON BUSH   PTSUNNY   87  74  64 N6        29.92F HX  95
HOUSTON HOBBY  PTSUNNY   85  74  69 VRB5      29.92F HX  92
*HOUSTON SW AP FAIR      82  77  83 NE6       29.93S HX  91
PEARLAND       FAIR      86  75  69 NE8       29.94S HX  95
HOUSTON HOOKS  FAIR      87  73  62 E7        29.93F HX  94
ELLINGTON FLD  PTSUNNY   82  75  78 N8        29.91F
SUGAR LAND     PTSUNNY   86  77  74 NE6       29.92F HX  97
*HOUSTON EXEC  PTSUNNY   88  75  66 NE8       29.94S HX  97
*CLEVELAND MUN CLOUDY    81  79  95 CALM      29.96F
*WHARTON       MOSUNNY   84  76  77 NE3       29.93S HX  94
*COLUMBUS      CLOUDY    91  74  57 SE3       29.93F HX 101
*EAGLE LAKE    PTSUNNY   89  78  70 E3        29.92  HX 103
$$

TXZ214>216-236>238-241700-
THE UPPER TEXAS COAST

CITY           SKY/WX    TMP DP  RH WIND       PRES   REMARKS
*ORANGE        PTSUNNY   83  80  90 E9        29.95S HX  94
PORT ARTHUR    PTSUNNY   86  77  74 NE9       29.92F HX  97
GALVESTON      FAIR      82  78  88 NE5       29.94R HX  91
ANGLETON       FAIR      81  76  84 SE5       29.94R
*BAY CITY      SUNNY     85  80  83 E7        29.93R HX  99
PALACIOS       MOSUNNY   88  76  67 NE7       29.92S HX  99
$$

TXZ229>234-239>247-241700-
TEXAS COASTAL BEND AND RIO GRANDE PLAINS

CITY           SKY/WX    TMP DP  RH WIND       PRES   REMARKS
VICTORIA       MOSUNNY   89  76  65 CALM      29.91S HX 100
*BEEVILLE      NOT AVBL
ROCKPORT       MOSUNNY   87  78  74 E7        29.89F HX 100
*PORT ARANSAS  CLOUDY    87  80  80 E8        29.91S HX 102
*PORT LAVACA   MOSUNNY   88  81  78 E6        29.92S HX 105
*INGLESIDE     SUNNY     90  79  68 SW6       29.89F HX 106
CORPUS CHRISTI PTSUNNY   91  77  63 SW6       29.89F HX 104
CORPUS NAS       N/A    N/A N/A N/A MISG      29.89S
*ROBSTOWN      SUNNY     88  76  67 SE3       29.90F HX  99
ALICE          MOSUNNY   92  75  57 VRB5      29.89F HX 103
KINGSVILLE NAS CLOUDY    90  76  63 W5        29.89F HX 101
COTULLA        SUNNY     88  72  58 NE5       29.91S HX  94
LAREDO         SUNNY     89  75  63 E6        29.90S HX  99
$$

TXZ248>255-241700-
DEEP SOUTH TEXAS

CITY           SKY/WX    TMP DP  RH WIND       PRES   REMARKS
BROWNSVILLE    FAIR      93  80  65 S13       29.87S HX 112
PORT ISABEL    FAIR      91  79  67 SE13      29.88R HX 107
HARLINGEN      SUNNY     93  76  57 S12       29.87S HX 105
*HEBBRONVILLE  MOSUNNY   88  72  58 CALM      29.92S HX  95
MCALLEN        SUNNY     94  73  50 S7        29.88S HX 103
*WESLACO       SUNNY     92  74  54 SW9       29.87  HX 102
FALFURRIAS     MOSUNNY   91  77  63 E5        29.89F HX 103
EDINBURG       FAIR      94  73  50 S8        29.88S HX 103
*ZAPATA        FAIR      90  73  55 E5        29.90F HX  98
$$

TXZ213>215-236>238-242>244-246-247-251-254-255-241700-
CMAN STATIONS

STATION/POSITION TIME  TEMP    WIND        PRES    WAVE
                       AIR SEA DIR/SP/G            HT/PER
                 (UTC) (F)     (DEG/KT/KT) (MB)    (FT/S)
SABINE PASS      1530   81 88  140/ 10/ 12 1015.1
NORTH JETTY/GLS  1530           50/ 11/ 13 1011.6
EAGLE POINT      1530   81 84   30/ 10/ 12 1012.1
MORGANS POINT    1530   81 86   40/  8/ 10 1012.9
PORT O`CONNOR    1530   83 87   40/  8/ 12 1012.4
PORT ARANSAS     1600   84 87  110/  8/  9 1012.7
MALAQUITE BEACH  1530   90 87  120/  5/  6 1012.2
BAFFIN BAY       1530   84 88  110/  5/  8 1012.5
PORT ISABEL      1530   86 82  160/  8/ 10 1012.2
$$



USA.gov is the U.S. government's official web portal to all federal, state and local government web resources and services.